Weather History for KSLN - November, 2012

Change the Weather History Date:

Friday, November 2, 2012

  Actual Average Record
Temperature  
Mean Temperature 60 °F 51 °F  
Max Temperature 75 °F 62 °F 82 °F (1914)
Min Temperature 45 °F 40 °F 11 °F (1991)
Degree Days  
Heating Degree Days 5 14  
Month to date heating degree days 11 28  
Since 1 July heating degree days 343 346  
Cooling Degree Days 0 0  
Month to date cooling degree days 0 0  
Year to date cooling degree days 2051 1646  
Growing Degree Days 10 (Base 50)    
Moisture  
Dew Point 41 °F    
Average Humidity 51    
Maximum Humidity 71    
Minimum Humidity 31    
Precipitation  
Precipitation 0.00 in 0.05 in 1.65 in (1975)
Month to date precipitation 0.00 0.10  
Year to date precipitation 17.58 29.41  
Sea Level Pressure  
Sea Level Pressure 29.87 in    
Wind  
Wind Speed 10 mph (East)    
Max Wind Speed 22 mph    
Max Gust Speed 28 mph    
Visibility 10 miles    
Events      
T = Trace of Precipitation, MM = Missing Value Source: NWS Daily Summary

Daily Weather History Graph

Daily Weather History Graph

Search for Another Location

Airport or City:

Trip Planner

Search our weather history database for the weather conditions in past years. The results will help you decide how hot, cold, wet, or windy it might be!

Date:

Astronomy

Nov. 02, 2012 Rise Set
Actual Time 7:59 AM CDT 6:28 PM CDT
Civil Twilight 7:31 AM CDT 6:56 PM CDT
Nautical Twilight 7:00 AM CDT 7:27 PM CDT
Astronomical Twilight 6:28 AM CDT 7:58 PM CDT
Moon 9:18 PM CDT (11/2) 11:19 AM CDT (11/2)
Length of Visible Light 11h 24m
Length of Day
10h 29m
Waning Gibbous, 87% of the Moon is Illuminated
Nov 2
Waning Gibbous
Nov 6
Last Quarter
Nov 13
New
Nov 20
First Quarter
Nov 28
Full

Hourly Weather History & Observations

Time (CDT) Temp. Dew Point Humidity Pressure Visibility Wind Dir Wind Speed Gust Speed Precip Events Conditions
12:53 AM 55.9 °F 39.9 °F 55% 29.90 in 10.0 mi East 6.9 mph - N/A   Clear
1:53 AM 54.0 °F 41.0 °F 62% 29.90 in 10.0 mi East 5.8 mph - N/A   Clear
2:53 AM 50.0 °F 39.9 °F 68% 29.89 in 10.0 mi SE 6.9 mph - N/A   Clear
3:53 AM 48.9 °F 39.9 °F 71% 29.87 in 10.0 mi SE 5.8 mph - N/A   Clear
4:53 AM 52.0 °F 39.9 °F 63% 29.86 in 10.0 mi ESE 3.5 mph - N/A   Clear
5:53 AM 51.1 °F 39.9 °F 66% 29.85 in 10.0 mi ESE 3.5 mph - N/A   Clear
6:53 AM 51.1 °F 39.9 °F 66% 29.83 in 10.0 mi ESE 9.2 mph - N/A   Clear
7:53 AM 50.0 °F 39.9 °F 68% 29.84 in 10.0 mi ESE 6.9 mph - N/A   Clear
8:53 AM 51.1 °F 41.0 °F 68% 29.84 in 10.0 mi ESE 6.9 mph - N/A   Clear
9:53 AM 55.0 °F 42.1 °F 62% 29.83 in 10.0 mi SE 9.2 mph - N/A   Clear
10:53 AM 62.1 °F 44.1 °F 52% 29.81 in 10.0 mi SE 12.7 mph - N/A   Clear
11:53 AM 68.0 °F 45.0 °F 43% 29.80 in 10.0 mi SSE 10.4 mph - N/A   Clear
12:53 PM 71.1 °F 43.0 °F 36% 29.80 in 10.0 mi South 5.8 mph - N/A   Clear
1:53 PM 72.0 °F 42.1 °F 34% 29.78 in 10.0 mi SSW 3.5 mph - N/A   Clear
2:53 PM 73.0 °F 41.0 °F 31% 29.79 in 10.0 mi WSW 3.5 mph - N/A   Clear
3:53 PM 73.9 °F 42.1 °F 32% 29.80 in 10.0 mi North 4.6 mph - N/A   Clear
4:53 PM 70.0 °F 45.0 °F 41% 29.82 in 10.0 mi North 15.0 mph - N/A   Clear
5:53 PM 64.9 °F 44.1 °F 47% 29.86 in 10.0 mi North 13.8 mph - N/A   Clear
6:53 PM 60.1 °F 43.0 °F 53% 29.90 in 10.0 mi North 11.5 mph - N/A   Clear
7:53 PM 59.0 °F 41.0 °F 51% 29.93 in 10.0 mi North 17.3 mph - N/A   Clear
8:53 PM 55.9 °F 39.9 °F 55% 29.97 in 10.0 mi NNW 17.3 mph - N/A   Clear
9:53 PM 53.1 °F 37.0 °F 55% 30.00 in 10.0 mi North 19.6 mph 26.5 mph N/A   Clear
10:53 PM 50.0 °F 35.1 °F 57% 30.03 in 10.0 mi North 17.3 mph - N/A   Clear
11:53 PM 48.0 °F 34.0 °F 58% 30.05 in 10.0 mi North 17.3 mph - N/A   Clear